User: anonymous   Login
Location: Unspecified
(0.0000°N, 0.0000°E)
Time: 10:00:38
(UTC+00:00)
Language:

STARLINK-5832 - Orbit

View from above orbital plane
View from above orbital plane
View from above satellite
View from above satellite

Ground track
Ground track

The orbit is defined by the following mean orbital elements,

1 57063U          26145.39407833 +.00000000 +00000-0 +18895-2 0 00002
2 57063  43.0023  37.4396 0001109 273.2494  86.8231 15.27319494    02
Epoch (UTC): 25 May 2026 09:27:28
Eccentricity: 0.0001109
inclination: 43.0023°
perigee height: 483 km
apogee height: 485 km
right ascension of ascending node: 37.4396°
argument of perigee: 273.2494°
revolutions per day: 15.27319494
mean anomaly at epoch: 86.8231°

The dashed part of the orbit path shows where the satellite is in the earth's shadow,  

DLR